Wind_Speed
21 21 21 21 21 20 19 19 18 18 17 16 16 14 13 12 11 11 10 10 9 8 7 7 8 8 9 9 8 7 7 7 7 8 9 8 6 3 3 4 6 7
21 21 21 21 21 21 21 20 19 19 18 17 16 14 13 12 12 12 11 11 11 9 8 8 8 9 10 10 10 8 7 7 7 8 8 8 7 5 4 4 6 7
21 21 21 21 21 21 21 21 19 19 18 18 17 15 14 13 12 13 13 13 12 11 10 9 9 10 10 11 11 10 9 8 8 8 9 9 8 6 5 4 5 6
20 20 21 21 22 22 21 19 19 19 18 18 17 16 15 14 14 13 14 14 14 13 12 11 10 10 11 11 12 13 11 9 9 9 9 10 10 8 6 5 5 6
19 19 20 21 21 21 20 19 19 19 18 18 18 17 17 16 16 15 15 15 16 16 15 14 12 11 11 12 13 14 14 12 11 11 10 11 11 10 8 6 5 6
20 19 19 20 20 20 20 20 20 20 19 19 18 18 18 18 18 18 17 17 17 17 17 16 15 14 13 12 13 14 15 14 13 12 12 12 12 12 10 8 7 6
21 21 21 21 21 21 21 22 22 21 21 21 20 20 20 19 19 20 20 19 19 19 19 18 18 17 15 14 14 15 15 16 15 14 14 14 14 14 13 11 9 8
22 23 23 23 23 23 22 23 23 22 23 23 22 23 23 22 22 22 22 22 21 21 21 20 20 19 18 16 15 16 16 16 17 16 16 16 16 16 15 14 12 11
24 24 24 24 23 23 22 22 22 22 22 22 22 23 24 24 24 24 24 24 23 23 22 22 21 21 21 19 18 18 18 18 18 18 18 17 17 18 17 17 15 14
25 24 24 24 23 22 22 21 21 20 20 20 21 22 23 24 25 25 25 25 25 25 24 24 23 23 23 22 21 20 20 20 19 19 19 19 19 19 19 19 18 17
24 24 24 23 22 22 21 20 19 19 19 19 20 21 21 22 23 24 24 25 26 26 26 25 25 25 24 24 23 23 23 22 21 21 21 21 21 21 21 21 21 19
24 23 22 22 22 21 20 19 19 19 19 19 19 19 19 19 20 21 22 23 25 26 27 27 26 25 25 25 25 25 25 24 23 22 22 23 23 22 22 22 22 22
23 23 22 22 22 21 20 20 19 19 19 18 18 17 17 17 17 18 19 20 23 25 27 27 27 26 26 26 26 26 26 26 25 23 23 24 24 24 23 23 24 23
22 23 23 23 23 22 21 20 20 19 19 17 16 15 15 14 14 15 15 16 19 22 25 27 27 27 26 26 27 27 27 27 27 25 24 25 25 25 25 24 24 25
23 24 23 24 24 22 21 20 20 19 18 16 15 14 13 13 13 12 12 12 13 16 20 23 25 26 26 25 26 27 27 27 27 27 26 26 26 27 27 26 25 26
25 25 24 24 24 22 22 21 21 19 17 15 14 13 13 13 12 11 11 11 11 11 13 15 18 21 24 25 26 28 28 28 28 28 27 27 27 28 28 28 26 26
26 26 25 25 24 23 22 22 21 20 18 16 15 14 13 13 12 11 10 10 10 11 11 11 12 14 18 22 25 27 29 29 28 28 28 28 28 28 29 29 28 27
27 27 26 25 24 24 23 22 22 21 19 17 16 15 14 14 12 11 10 10 10 10 11 11 12 13 14 17 21 24 27 27 27 28 28 29 29 29 29 30 29 29
28 28 27 26 25 25 25 24 23 22 21 19 18 17 17 16 14 12 11 11 10 10 10 11 11 12 14 16 19 21 24 26 26 27 28 28 29 30 30 30 30 30
28 29 28 27 26 26 26 25 24 23 22 21 20 20 18 17 16 14 13 13 12 12 12 11 11 11 12 15 18 21 23 25 26 26 27 28 28 30 31 31 31 31
27 28 29 29 28 28 27 26 24 24 24 23 22 21 20 20 18 17 16 15 15 15 15 13 13 13 13 14 17 19 22 25 27 27 27 27 27 29 31 32 32 33
26 28 29 29 28 28 27 25 25 24 25 25 25 24 24 23 22 20 19 19 19 20 19 18 17 18 17 16 18 20 23 26 27 28 28 28 27 28 29 31 33 33
25 26 26 25 25 24 24 24 24 25 26 27 27 27 27 26 25 23 23 23 23 24 25 23 22 22 22 21 22 23 26 28 29 30 30 30 30 30 30 30 31 33
23 23 22 21 21 20 21 22 24 26 27 28 29 30 29 28 28 27 26 27 28 28 28 28 27 27 26 25 25 27 29 31 33 34 34 33 33 34 33 32 31 30
21 21 20 20 19 19 20 23 25 27 28 29 30 30 30 30 30 30 30 31 31 31 30 31 31 30 28 26 26 27 29 33 35 37 38 37 37 37 38 37 35 32
21 20 20 20 20 21 22 24 26 28 30 31 31 31 31 32 32 33 33 33 34 33 32 32 32 32 30 28 28 29 30 33 36 37 38 40 42 43 42 41 41 39
Wind_Direction
210 208 209 213 218 223 226 228 229 229 229 230 232 233 233 233 234 236 236 239 246 255 270 283 283 270 257 249 247 249 257 271 285 295 302 299 291 292 312 328 341 348
216 214 214 216 220 224 227 230 231 232 234 236 237 239 239 238 238 239 238 239 244 251 261 275 285 282 271 259 252 247 250 262 274 284 291 288 279 276 293 317 334 345
219 217 217 218 220 224 227 229 230 232 234 238 241 243 243 241 240 240 241 243 245 248 253 264 277 284 283 272 260 253 250 255 265 274 281 279 269 261 269 297 323 339
223 220 219 219 221 225 229 230 232 233 234 235 238 242 245 246 244 242 242 244 246 248 250 256 266 277 285 282 271 261 254 253 259 267 272 271 262 253 254 273 306 329
228 226 226 226 227 229 232 234 236 238 238 238 238 240 242 245 247 246 244 244 247 248 249 253 258 266 276 283 280 270 261 255 256 261 265 264 259 250 247 255 282 315
235 235 235 236 237 238 239 240 242 243 245 246 245 244 243 244 247 248 248 246 247 248 249 251 253 257 264 274 281 278 269 260 256 260 262 262 258 251 246 248 263 289
239 239 240 241 242 243 244 246 247 248 250 252 253 253 251 249 248 249 250 249 248 249 249 249 251 253 256 262 273 278 274 265 259 259 261 261 260 255 250 249 255 269
240 241 243 245 246 248 250 251 253 254 256 257 259 259 258 256 253 252 251 251 251 250 250 250 250 252 253 256 262 269 273 268 261 257 259 261 262 258 255 254 255 261
242 244 247 249 251 254 256 257 259 260 262 263 263 262 261 260 258 255 254 253 253 253 252 252 251 252 253 253 255 260 267 268 263 258 257 260 261 261 259 258 257 260
243 246 249 251 254 256 258 260 262 265 267 269 269 268 265 263 260 257 255 254 254 255 255 254 253 253 253 252 252 254 260 264 265 261 258 257 259 261 261 260 259 260
246 247 250 252 254 255 257 260 263 267 271 273 274 273 270 266 262 259 256 254 254 254 254 254 253 253 254 253 252 252 256 261 265 265 262 258 257 259 261 262 261 261
252 252 252 253 254 256 257 260 265 270 274 276 276 276 273 269 265 261 256 253 252 253 254 254 254 254 255 255 254 253 255 259 265 268 266 262 258 258 260 261 263 263
254 254 253 253 255 256 257 261 267 272 275 277 276 274 272 270 268 265 261 255 252 252 253 254 255 255 255 256 256 256 256 259 263 267 268 266 262 260 260 261 263 265
252 251 249 251 253 256 258 262 268 272 275 275 272 269 267 267 267 267 267 262 256 254 254 254 255 256 256 257 257 258 258 259 262 265 268 269 266 263 262 262 264 267
247 246 245 247 251 255 258 262 267 271 272 271 266 262 259 259 260 263 267 268 263 259 258 257 257 256 256 256 257 258 259 259 261 264 267 269 268 266 265 265 266 268
244 242 241 243 247 251 255 259 264 268 268 264 258 253 250 249 252 255 258 262 265 266 266 265 262 258 255 253 253 255 257 258 260 264 267 268 269 268 267 267 267 268
241 241 240 241 243 247 250 254 259 262 260 257 252 248 244 242 244 245 245 251 260 266 270 271 270 263 257 253 251 252 255 257 259 261 264 266 267 268 268 268 268 268
238 239 239 239 241 244 247 250 253 255 254 253 251 247 242 239 238 237 238 243 250 260 268 270 269 267 263 259 256 255 257 259 259 260 262 264 266 267 267 267 268 267
237 238 239 240 241 242 245 248 250 251 251 250 248 246 242 240 238 236 236 239 242 248 258 266 269 270 269 267 264 262 263 264 265 265 264 264 266 267 267 267 267 267
238 239 240 241 243 242 244 247 249 250 250 249 248 246 243 242 240 238 237 239 244 245 247 255 266 271 271 271 270 269 270 271 272 271 270 269 269 269 269 269 268 268
240 240 241 242 243 243 243 246 247 249 251 252 251 248 244 242 242 241 240 242 247 250 247 246 253 260 264 268 272 273 273 274 274 275 275 274 273 272 272 273 272 271
239 239 241 242 242 241 243 246 248 249 250 252 252 251 247 244 244 245 246 248 252 255 253 247 245 248 251 256 264 270 272 274 275 278 279 280 278 275 273 274 274 274
239 241 243 244 243 243 245 247 247 247 248 250 253 254 252 248 246 247 249 252 255 257 258 254 249 247 247 249 254 260 265 271 275 278 281 283 283 281 277 275 275 276
236 239 241 242 243 243 244 245 245 246 248 251 254 257 257 251 247 247 249 252 256 259 260 260 258 256 256 257 259 260 265 270 274 277 280 282 284 284 281 278 276 276
234 235 236 238 239 240 242 244 247 250 252 255 257 259 258 253 250 250 252 254 258 260 263 264 265 266 267 267 267 268 270 273 275 276 276 278 279 279 279 277 276 275
237 238 243 245 246 247 249 253 257 259 261 262 262 262 260 257 255 256 258 260 263 264 265 266 267 270 273 273 272 273 275 276 277 277 277 276 275 273 273 274 274 274
Height
5920 5922 5923 5924 5925 5926 5927 5928 5929 5929 5930 5931 5932 5933 5934 5935 5936 5936 5937 5938 5938 5939 5939 5939 5939 5939 5939 5939 5939 5939 5939 5939 5940 5940 5940 5940 5939 5939 5939 5939 5939 5939
5920 5921 5922 5923 5924 5925 5926 5927 5928 5929 5930 5930 5931 5932 5933 5934 5935 5935 5936 5937 5937 5938 5938 5938 5938 5938 5938 5938 5938 5938 5938 5939 5939 5940 5940 5940 5939 5939 5939 5939 5939 5939
5919 5920 5921 5923 5923 5924 5925 5926 5928 5929 5929 5930 5931 5932 5932 5933 5934 5935 5935 5936 5936 5937 5937 5937 5938 5938 5938 5938 5937 5937 5937 5938 5938 5939 5939 5939 5939 5939 5939 5939 5939 5938
5918 5919 5920 5921 5922 5923 5925 5926 5927 5928 5929 5930 5931 5931 5932 5932 5933 5934 5934 5935 5935 5936 5936 5936 5937 5937 5937 5937 5937 5937 5937 5937 5937 5938 5938 5938 5938 5938 5938 5938 5938 5938
5917 5919 5920 5921 5922 5923 5924 5925 5926 5927 5928 5929 5930 5931 5931 5931 5932 5933 5933 5934 5934 5935 5935 5935 5935 5936 5936 5936 5936 5936 5936 5936 5936 5937 5937 5937 5938 5937 5937 5938 5937 5937
5917 5918 5919 5920 5921 5922 5923 5924 5925 5926 5927 5928 5929 5930 5930 5931 5931 5931 5932 5932 5933 5933 5933 5934 5934 5934 5934 5935 5935 5935 5935 5935 5935 5935 5936 5936 5936 5936 5936 5936 5936 5936
5915 5916 5917 5918 5920 5921 5922 5922 5923 5924 5925 5926 5927 5928 5929 5929 5930 5930 5930 5930 5931 5931 5932 5932 5932 5932 5933 5933 5933 5933 5933 5933 5934 5934 5934 5935 5935 5935 5935 5935 5935 5935
5914 5915 5916 5917 5918 5919 5920 5921 5921 5922 5923 5924 5925 5926 5926 5927 5928 5928 5928 5928 5928 5929 5929 5930 5930 5931 5931 5931 5932 5931 5932 5932 5932 5932 5933 5933 5933 5933 5934 5933 5933 5933
5912 5913 5914 5915 5916 5917 5918 5918 5919 5920 5921 5922 5923 5923 5924 5924 5925 5925 5925 5926 5926 5926 5927 5927 5928 5928 5929 5929 5930 5929 5930 5930 5930 5930 5931 5931 5932 5932 5932 5932 5932 5932
5910 5911 5912 5913 5914 5915 5915 5916 5917 5918 5919 5919 5920 5920 5920 5921 5921 5922 5922 5923 5923 5923 5924 5925 5925 5926 5926 5927 5927 5927 5927 5928 5928 5928 5929 5929 5929 5930 5930 5930 5930 5930
5909 5909 5910 5911 5912 5912 5913 5914 5915 5916 5916 5917 5917 5917 5917 5917 5918 5918 5919 5920 5920 5920 5921 5922 5923 5923 5924 5924 5925 5925 5925 5926 5926 5926 5926 5927 5927 5927 5928 5928 5928 5928
5907 5908 5909 5909 5910 5911 5911 5912 5913 5913 5914 5914 5914 5914 5914 5914 5914 5915 5915 5916 5917 5917 5918 5919 5920 5921 5921 5922 5922 5923 5923 5923 5924 5924 5924 5924 5924 5925 5925 5926 5926 5926
5905 5906 5907 5907 5908 5909 5910 5911 5911 5911 5912 5912 5912 5912 5912 5912 5912 5912 5912 5913 5914 5914 5915 5916 5917 5918 5919 5919 5920 5920 5920 5921 5921 5922 5922 5922 5922 5922 5923 5923 5923 5923
5903 5904 5904 5905 5906 5907 5908 5909 5909 5909 5909 5910 5910 5910 5910 5910 5910 5910 5910 5911 5911 5912 5912 5913 5914 5915 5916 5917 5917 5918 5918 5918 5919 5919 5919 5919 5919 5919 5920 5920 5921 5921
5900 5901 5902 5902 5903 5905 5906 5906 5906 5907 5907 5907 5908 5908 5908 5908 5908 5908 5909 5909 5909 5909 5910 5910 5911 5912 5914 5915 5915 5915 5915 5916 5916 5916 5917 5917 5917 5917 5917 5918 5918 5918
5897 5898 5899 5900 5901 5902 5903 5904 5904 5904 5905 5905 5906 5906 5906 5906 5907 5907 5907 5907 5907 5908 5908 5908 5909 5910 5911 5912 5912 5912 5912 5913 5913 5914 5914 5914 5914 5914 5914 5915 5916 5916
5895 5896 5897 5898 5899 5900 5901 5901 5902 5902 5903 5904 5904 5905 5905 5905 5905 5906 5906 5906 5906 5906 5906 5907 5907 5907 5908 5908 5909 5909 5909 5910 5910 5911 5911 5911 5911 5912 5912 5912 5912 5913
5892 5893 5894 5896 5897 5898 5899 5899 5900 5900 5901 5902 5903 5903 5903 5903 5904 5904 5904 5905 5905 5905 5905 5906 5906 5906 5906 5906 5906 5907 5907 5907 5907 5907 5907 5908 5908 5908 5909 5909 5909 5909
5890 5891 5892 5893 5894 5896 5896 5897 5898 5899 5900 5901 5901 5901 5901 5902 5902 5903 5903 5903 5904 5904 5904 5904 5905 5905 5905 5905 5905 5905 5905 5904 5904 5905 5905 5905 5905 5905 5905 5906 5906 5906
5888 5889 5890 5891 5892 5893 5894 5895 5896 5897 5898 5899 5899 5899 5900 5900 5901 5901 5901 5902 5902 5902 5903 5903 5903 5904 5904 5904 5903 5903 5903 5902 5902 5902 5902 5902 5902 5902 5902 5902 5902 5902
5886 5887 5887 5888 5889 5890 5891 5893 5894 5895 5895 5896 5897 5898 5898 5898 5899 5899 5899 5900 5900 5900 5901 5901 5902 5902 5902 5902 5901 5901 5900 5900 5899 5898 5899 5900 5900 5900 5899 5899 5899 5899
5884 5884 5885 5886 5887 5888 5890 5891 5892 5893 5893 5893 5894 5895 5896 5896 5897 5897 5897 5897 5898 5898 5898 5899 5899 5899 5899 5900 5899 5899 5898 5897 5896 5896 5896 5897 5897 5897 5896 5896 5896 5896
5881 5882 5883 5884 5885 5887 5888 5889 5890 5890 5890 5891 5891 5892 5893 5894 5894 5894 5894 5895 5895 5895 5895 5896 5896 5896 5896 5897 5897 5896 5895 5894 5894 5893 5893 5894 5894 5893 5893 5893 5893 5892
5878 5879 5880 5882 5883 5885 5886 5887 5887 5888 5888 5888 5888 5889 5890 5891 5891 5891 5891 5892 5892 5893 5893 5893 5893 5893 5894 5895 5895 5894 5893 5892 5891 5890 5890 5890 5890 5890 5890 5890 5889 5889
5875 5876 5878 5879 5881 5882 5883 5884 5885 5885 5885 5885 5886 5886 5886 5887 5887 5888 5888 5889 5889 5890 5890 5890 5891 5891 5891 5892 5892 5892 5891 5889 5888 5887 5886 5887 5887 5886 5886 5886 5886 5886
5873 5874 5875 5876 5878 5879 5880 5881 5881 5882 5882 5882 5883 5883 5883 5884 5884 5885 5885 5886 5886 5887 5887 5888 5888 5888 5888 5889 5889 5889 5888 5887 5885 5883 5883 5883 5882 5881 5881 5881 5882 5882